1st Responders/1st Detectors/Storm Spotters Weather Summary for Scott County, KY

Forecast Maps


Reg. NEXRAD Animation


National Fire Danger: Day 1 & 2 Map

Current NWS Watch/Warnings

SPC Convective Day 1 Outlook


Day 2 Outlook

(Click images to enlarge|Page will refresh every 5 minutes)
UK Ag. Weather Center Desktop Severe Weather Service[HERE]
Scott County, KY Hazardous Weather Outlook Webcast
(9 AM to 9 PM Mon-Fri)
[Fast]
[Dial-up]


UKAWC 1st Detectors/1st Responders Precision Weather Forecast For SCOTT County, Kentucky
(based on the NWS County Digital Forecast)

ISSUED AT 09:00 UTC ON TUESDAY JUN 18 2019
DAY TUESDAY
EDT 3HR 6A 7A 8A 9A 10A 11A NOON 1P 2P 3P 4P 5P 6P 7P
MAX/MIN -- -- 67° -- -- -- -- -- -- -- -- -- -- 77°
TEMP 68° 68° 68° 70° 70° 72° 74° 74° 74° 76° 76° 76° 76° 74°
SKY COVER 97% 99% 100% 99% 98% 100% 100% 98% 95% 88% 84% 80% 82% 77%
Clouds
DEW PT 67° 67° 67° 68° 67° 67° 67° 68° 68° 70° 68° 70° 70° 70°
RH 96% 96% 93% 96% 90% 87% 82% 81% 81% 82% 79% 82% 81% 86%
POP 12HR -- -- 80% -- -- -- -- -- -- -- -- -- -- --
RAIN/SNOW (liq.equ) -- -- 0.33in -- -- -- -- -- 0.17in -- -- -- -- --
SNOWFALL -- -- 0in -- -- -- -- -- 0in -- -- -- -- --
WIND SPEED(MPH) 5 2 5 7 7 7 7 7 7 7 7 7 7 6
WIND Gust(MPH) 13 14 14 15 15 14 15 15 15 15 15 14 13 13
WIND DIR SW SW SW SW SW SW SW SW S SW SW SW SW SW
DEW -- -- -- -- -- -- -- -- -- Lgt Dew Lgt Dew Lgt Dew Lgt Dew Mod Dew
HeatIndex 68 68 68 70 70 72 74 74 74 76 76 76 76 74
Rain Showers Definite Definite Definite Definite Likely Likely Likely Likely Likely Likely Likely Likely Likely Likely
Thunder Storm Likely Likely Definite Likely Likely Likely Likely Likely Chance Chance Chance Chance Chance Chance
WIND CHILL -- -- -- -- -- -- -- -- -- -- -- -- -- --
SPRAY COND
DRY COND
LIVESTOCK HEATSTRESS 67.80 67.80 67.65 69.75 69.38 71.06 72.50 72.41 72.41 74.30 74.01 74.30 74.20 72.83



DAY WEDNESDAY THURSDAY FRIDAY SATURDAY SUNDAY MONDAY
EDT 6HR 8P 9P 10P 11P MIDN 1A 2A 3A 4A 5A 6A 7A 8A 9A 10A 11A NOON 1P 2P 3P 4P 5P 8P 11P 2A 5A 8A 11A 2P 5P 8P 2A 8A 2P 8P 2A 8A 2P 8P 2A 8A 2P 8P 2A 8A 2P 8P
MAX/MIN -- -- -- -- -- -- -- -- -- -- -- -- 67° -- -- -- -- -- -- -- -- 81° -- -- -- -- 67° -- -- 76° -- -- 61° 79° -- -- 65° 83° -- -- 68° 83° -- -- 67° 81° --
TEMP 72° 72° 70° 70° 68° 68° 67° 67° 67° 67° 67° 67° 68° 70° 72° 74° 76° 77° 79° 79° 79° 79° 76° 72° 70° 68° 68° 72° 74° 74° 72° 65° 65° 76° 76° 67° 68° 81° 79° 72° 72° 79° 76° 70° 72° 77° 76°
SKY COVER 85% 88% 86% 84% 81% 76% 72% 72% 73% 74% 75% 75% 76% 77% 78% 79% 77% 76% 74% 68% 61% 55% 71% 79% 88% 82% 89% 84% 75% 58% 54% 28% 33% 34% 45% 48% 70% 63% 65% 71% 67% 69% 70% 64% 64% 71% 75%
Clouds
DEW PT 70° 68° 68° 68° 68° 67° 67° 67° 67° 67° 67° 67° 67° 68° 70° 68° 70° 70° 70° 70° 70° 70° 68° 68° 68° 67° 67° 67° 67° 65° 65° 63° 63° 63° 67° 65° 67° 72° 70° 70° 70° 72° 70° 70° 68° 70° 67°
RH 90% 90% 93% 96% 100% 96% 96% 96% 100% 99% 100% 100% 96% 93% 90% 81% 82% 76% 74% 71% 71% 71% 76% 89% 97% 96% 93% 87% 81% 73% 78% 92% 93% 64% 73% 90% 93% 74% 76% 93% 93% 79% 81% 97% 90% 76% 76%
POP 12HR 85% -- -- -- -- -- -- -- -- -- -- -- 50% -- -- -- -- -- -- -- -- -- 57% -- -- -- 77% -- -- -- 77% -- 9% -- 9% -- 38% -- 43% -- 41% -- 48% -- 46% -- 46%
RAIN/SNOW (liq.equ) 0.22in -- -- -- -- -- 0.03in -- -- -- -- -- 0.01in -- -- -- -- -- 0.01in -- -- -- 0.07in -- 0.22in -- 0.37in -- 0.36in -- 0.15in -- -- -- -- -- -- -- -- -- -- -- -- -- -- -- --
SNOWFALL 0in -- -- -- -- -- 0in -- -- -- -- -- 0in -- -- -- -- -- 0in -- -- -- 0in -- 0in -- 0in -- 0in -- 0in -- -- -- -- -- -- -- -- -- -- -- -- -- -- -- --
WIND SPEED(MPH) 5 5 2 2 2 2 1 1 2 2 2 2 2 5 5 6 7 7 7 7 7 7 2 6 7 7 8 10 13 10 7 5 2 5 2 5 6 9 7 6 7 8 7 6 7 10 7
WIND DIR S S S S S S S S S S S S SW SW SW SW SW SW SW SW SW SW SW SW SW SW SW SW SW W W NW NW NW SW SE S SW SW SW SW W SW SW SW SW W
HeatIndex 72 72 70 70 68 68 67 67 67 67 67 67 68 70 72 74 76 77 79 83 83 83 76 72 70 68 68 72 74 74 72 65 65 76 76 67 68 85 79 72 72 79 76 70 72 77 76
Rain Showers Chance Chance Chance Chance Chance Chance Slight Chance Slight Chance Slight Chance Slight Chance Slight Chance Slight Chance Chance Chance Chance Chance Chance Chance Likely Likely Likely Likely Likely Likely Definite Definite Definite Definite Likely Likely Slight Chance -- -- -- Slight Chance Chance Chance Chance Chance Chance Chance Chance Chance Chance Chance Chance Chance
Thunder Storm Chance Chance Chance Chance Chance Chance -- -- -- -- -- -- Chance Chance Chance Chance Chance Chance Chance Chance Chance Chance Chance Chance Chance Chance Chance Chance Chance Chance -- -- -- -- Slight Chance Chance Chance Chance Chance Chance Chance Chance Chance Chance Chance Chance Chance
WIND CHILL -- -- -- -- -- -- -- -- -- -- -- -- -- -- -- -- -- -- -- -- -- -- -- -- -- -- -- -- -- -- -- -- -- -- -- -- -- -- -- -- -- -- -- -- -- -- --
SPRAY COND
DRY COND
LIVESTOCK HEATSTRESS 71.27 71.27 69.57 69.75 68.00 67.80 66.82 66.82 67.00 66.95 67.00 67.00 67.80 69.57 71.27 72.41 74.30 74.60 76.11 75.78 75.78 75.78 73.73 71.20 69.82 67.80 67.65 71.06 72.41 71.74 70.40 64.73 64.76 72.59 73.45 66.55 67.65 77.83 76.33 71.49 71.49 76.67 74.20 69.82 71.27 74.60 73.73

Click on individual weather variable above in left-hand column (ie., TEMP, RH, QPF 12HR) to view state forecast maps






NWS 48 Hr. Forecast Maps,

Regional Hourly Observations For SCOTT County, Kentucky
Issued at 500 AM EDT TUE JUN 18 2019
...CENTRAL KENTUCKY...
  
CITY           SKY/WX    TMP DP  RH WIND       PRES   REMARKS
MT STERLING*   MOCLDY    66  64  94 S6        29.99F                  
FLEMING/MASON* DRIZZLE   66  66 100 S3        29.97F                  
DANVILLE*      CLOUDY    66  64  94 CALM      30.01S                  
LEXINGTON      MOCLDY    67  64  90 S6        29.97S                  
FRANKFORT      CLOUDY    70  66  87 CALM      29.95S                  
LOUISVILLE     CLOUDY    72  68  87 S8        29.94S                  
LEBANON*         N/A     68  68 100 SE6       29.98S                  
GLASGOW*       LGT RAIN  67  65  92 S3G9      29.98R                  
BOWLING GREEN  LGT RAIN  71  68  90 CALM      29.97S                  


Current NOWCAST not available:
Nowcasts are not issued routinely during fair weather. Only when
precipitation or other significant weather is occuring in this county will these
forecasts be issued. Currently, there is no short term forecast in effect.


Fire Weather Forecast For SCOTT County, KY
Provided by the National Weather Service:

Issued at: Tue Jun 18 05:05:01 EDT 2019


                      Today        Tonight      Tue          

CLOUD COVER           PCldy        MCldy        MCldy        
PRECIP TYPE           Tstms        Tstms        Tstms        
CHANCE PRECIP (%)     70           70           70           
TEMP (24H TREND)      83 (-2)      68 (+1)      78           
RH % (24H TREND)      64 (0)       99 (0)       73           
20FTWND-VAL/AM(MPH)   SW  7                     Lgt/Var      
20FTWND-RDG/PM(MPH)   SW  7        Lgt/Var      SW  5        
PRECIP AMOUNT         0.22         0.39         0.44         
MIXING HGT(FT-AGL/MSL)4828                      4253         
TRANSPORT WND (MPH)   SW 15                     SW  9        
VENT RATE (KT-FT)     67018                     37915        
DISPERSION            Good                      Marginal     
DSI                   SLGT UNSTBL  SLGT UNSTBL  SLGT UNSTBL  
LAL                   4            4            5            
HAINES INDEX          3            3            3            
ADI EARLY             38 FAIR      9 POOR       16 GEN POOR  
ADI LATE              44 GEN GOOD  3 VERY POOR  24 FAIR      
MAX LVORI EARLY       5            7            6            
MAX LVORI LATE        3            7            4            

REMARKS...ADI IS ATMOSPHERIC DISPERSION INDEX BY LAVDAS.        
LVORI IS LOW VISIBILITY OCCURRENCE RISK INDEX.

.WEDNESDAY...Showers and thunderstorms likely. Lows in the mid
60s. Highs in the lower 80s. Light winds. 
.THURSDAY...Showers and thunderstorms. Lows in the upper 60s.
Highs in the upper 70s. Southwest winds around 5 mph. 
.FRIDAY...Partly cloudy. Lows in the lower 60s. Highs in the
lower 80s. Southwest winds up to 10 mph. 
.SATURDAY...Mostly cloudy with a 40 percent chance of showers and
thunderstorms. Lows in the mid 60s. Highs in the lower 80s. West
winds up to 10 mph. 
.SUNDAY...Mostly cloudy. A 50 percent chance of showers and
thunderstorms. Lows in the upper 60s. Highs in the lower 80s.
West winds 5 to 10 mph. 

SPC's Fire Weather Web Tool (Excellent!), SPC's Fire Weather Outlooks, NWS Fire Weather WEB, Fire Danger Class Map,
Keetch-Byram Drought Index, ROMAN Web, Haines Index ,
WFAS's 10-hr Dead Fuel Moist., WFAS's 100-hr Dead Fuel Moist., Probablity of Ignition, Visual blackness Map, Palmer Drought Index, HPC's Rainfall Forecast Maps


Hazardous Weather Outlook For SCOTT County, Kentucky
341 AM EDT Tue Jun 18 2019 /241 AM CDT Tue Jun 18 2019/

   FLASH FLOOD WATCH IN EFFECT UNTIL 2 PM EDT /1 PM CDT/ THIS
AFTERNOON  

This hazardous weather outlook is for portions of south central
Indiana and Central Kentucky.

 DAY ONE  Today and Tonight.

Scattered thunderstorms will produce locally heavy rainfall. 
Flash flooding is possible if heavy rain falls in the same locations
where heavy rain occurred on Monday. 

 DAYS TWO THROUGH SEVEN  Wednesday through Monday.

Additional thunderstorms are expected Wednesday evening into 
Thursday as a low pressure system moves over the Ohio Valley. Strong 
thunderstorms will be possible with gusty winds, torrential rainfall,
and lightning. Flash flooding could occur with any repeated rounds 
of heavy rain over the same areas. 

 SPOTTER INFORMATION STATEMENT  

Spotters are encouraged to report flooding to the National Weather 
Service.

Latest SCOTT County, Kentucky Watches, Warnings and Advisories.
Additional Drought Info.: UKAWC Drought Page, Kentucky Drought Watch


7-Day Forecast For SCOTT County, KY


FLASH FLOOD WATCH IN EFFECT UNTIL 2 PM EDT THIS AFTERNOON

TODAY
Showers and thunderstorms. Some thunderstorms may produce heavy rainfall. Highs in the upper 70s. Southwest winds 5 to 10 mph. Chance of precipitation 90 percent.

TONIGHT
Showers likely and chance of thunderstorms. Lows in the upper 60s. South winds up to 5 mph. Chance of precipitation 60 percent.

WEDNESDAY
Showers likely and chance of thunderstorms. Highs in the lower 80s. Southwest winds up to 10 mph. Chance of precipitation 60 percent.

WEDNESDAY NIGHT
Showers and chance of thunderstorms. Lows in the upper 60s. Southwest winds 5 to 10 mph with gusts to around 25 mph. Chance of precipitation 80 percent.

THURSDAY
Showers and chance of thunderstorms. Highs in the upper 70s. Southwest winds 10 to 15 mph with gusts to around 30 mph. Chance of precipitation 80 percent.

THURSDAY NIGHT
Partly cloudy with a 20 percent chance of showers. Lows in the lower 60s.

FRIDAY
Partly cloudy. Highs in the lower 80s.

FRIDAY NIGHT
Partly cloudy with a 40 percent chance of showers and thunderstorms. Lows in the mid 60s.

SATURDAY
Partly cloudy with a 50 percent chance of showers and thunderstorms. Highs in the mid 80s.

SATURDAY NIGHT
Partly cloudy with a 50 percent chance of showers and thunderstorms. Lows in the upper 60s.

SUNDAY
Showers likely and chance of thunderstorms. Highs in the mid 80s. Chance of precipitation 60 percent.

SUNDAY NIGHT
Partly cloudy with a 50 percent chance of showers and thunderstorms. Lows in the upper 60s.

MONDAY
Partly cloudy with a 50 percent chance of showers and thunderstorms. Highs in the lower 80s.

Ag Weather Center, Department of Biosystems & Agricultural Engineering, University of Kentucky